Weather History for Roswell, NM

Change the Weather History Date:

Monday, December 23, 2013

  Actual Average Record
Temperature  
Mean Temperature 38 °F 39 °F  
Max Temperature 55 °F 53 °F 80 °F (1964)
Min Temperature 21 °F 25 °F -1 °F (1912)
Degree Days  
Heating Degree Days 27 26  
Month to date heating degree days 564 558  
Since 1 July heating degree days 1229 1204  
Cooling Degree Days 0 0  
Month to date cooling degree days 0 0  
Year to date cooling degree days 2174 1789  
Moisture  
Dew Point 24 °F    
Average Humidity 57    
Maximum Humidity 88    
Minimum Humidity 26    
Precipitation  
Precipitation 0.00 in 0.02 in 0.37 in (2011)
Month to date precipitation 0.45 0.49  
Year to date precipitation 9.45 12.76  
Sea Level Pressure  
Sea Level Pressure 30.35 in    
Wind  
Wind Speed 5 mph (SSW)    
Max Wind Speed 12 mph    
Max Gust Speed 13 mph    
Visibility 10 miles    
Events      
T = Trace of Precipitation, MM = Missing Value Source: NWS Daily Summary

Daily Weather History Graph

Daily Weather History Graph

Search for Another Location

Airport:

Trip Planner

Search our weather history database for the weather conditions in past years. The results will help you decide how hot, cold, wet, or windy it might be!

Date:

Astronomy

Dec. 23, 2013 Rise Set
Actual Time 6:58 AM MST 4:55 PM MST
Civil Twilight 6:31 AM MST 5:23 PM MST
Nautical Twilight 6:00 AM MST 5:54 PM MST
Astronomical Twilight 5:30 AM MST 6:24 PM MST
Moon 10:50 PM MST (12/23) 10:41 AM MST (12/23)
Length of Visible Light 10h 52m
Length of Day
9h 57m
Waning Gibbous, 67% of the Moon is Illuminated
Dec 23
Waning Gibbous
Dec 25
Last Quarter
Jan 1
New
Jan 7
First Quarter
Jan 15
Full

Hourly Weather History & Observations

Time (MST) Temp. Windchill Dew Point Humidity Pressure Visibility Wind Dir Wind Speed Gust Speed Precip Events Conditions
12:51 AM 25.0 °F 20.7 °F 21.9 °F 88% 30.26 in 10.0 mi SW 3.5 mph - N/A   Clear
1:51 AM 25.0 °F 20.7 °F 21.9 °F 88% 30.25 in 10.0 mi SE 3.5 mph - N/A   Clear
2:51 AM 26.1 °F 21.9 °F 21.9 °F 84% 30.26 in 10.0 mi NW 3.5 mph - N/A   Clear
3:51 AM 24.1 °F 18.2 °F 21.9 °F 91% 30.29 in 8.0 mi ENE 4.6 mph - N/A   Clear
4:51 AM 24.1 °F 17.0 °F 21.0 °F 88% 30.30 in 10.0 mi SW 5.8 mph - N/A   Clear
5:51 AM 24.1 °F - 21.0 °F 88% 30.33 in 10.0 mi Calm Calm - N/A   Clear
6:51 AM 21.0 °F 16.2 °F 18.0 °F 88% 30.38 in 9.0 mi WSW 3.5 mph - N/A   Clear
7:51 AM 26.1 °F - 21.9 °F 84% 30.39 in 10.0 mi Calm Calm - N/A   Clear
8:51 AM 34.0 °F 31.0 °F 27.0 °F 75% 30.41 in 10.0 mi NW 3.5 mph - N/A   Clear
9:51 AM 37.9 °F 33.5 °F 28.9 °F 70% 30.41 in 10.0 mi East 5.8 mph - N/A   Clear
10:51 AM 44.1 °F 41.5 °F 30.0 °F 58% 30.41 in 10.0 mi NE 4.6 mph - N/A   Clear
11:51 AM 48.0 °F - 28.0 °F 46% 30.37 in 10.0 mi ESE 4.6 mph - N/A   Clear
12:51 PM 54.0 °F - 19.9 °F 26% 30.33 in 10.0 mi Calm Calm - N/A   Clear
1:51 PM 53.1 °F - 21.0 °F 29% 30.33 in 10.0 mi Calm Calm - N/A   Clear
2:51 PM 54.0 °F - 19.0 °F 25% 30.32 in 10.0 mi Calm Calm - N/A   Clear
3:51 PM 54.0 °F - 21.9 °F 29% 30.33 in 10.0 mi SSE 8.1 mph - N/A   Clear
4:51 PM 46.9 °F - 26.1 °F 44% 30.35 in 10.0 mi South 6.9 mph - N/A   Clear
5:51 PM 42.1 °F 37.7 °F 26.1 °F 53% 30.39 in 10.0 mi SSE 6.9 mph - N/A   Clear
6:51 PM 41.0 °F 38.0 °F 25.0 °F 53% 30.41 in 10.0 mi SSE 4.6 mph - N/A   Clear
7:51 PM 32.0 °F 25.6 °F 25.0 °F 75% 30.42 in 10.0 mi SSW 6.9 mph - N/A   Clear
8:51 PM 34.0 °F 28.0 °F 25.0 °F 70% 30.40 in 10.0 mi WSW 6.9 mph - N/A   Clear
9:51 PM 32.0 °F 24.2 °F 25.0 °F 75% 30.41 in 10.0 mi SW 9.2 mph - N/A   Clear
10:51 PM 33.1 °F 26.1 °F 25.0 °F 72% 30.38 in 10.0 mi WSW 8.1 mph - N/A   Clear
11:51 PM 28.0 °F 20.8 °F 24.1 °F 85% 30.36 in 10.0 mi SW 6.9 mph - N/A   Clear